Dickinson, ND

12:45 PM MDT on July 20, 2017 (GMT -0600)
Dickinson Municipal

Weather History for KDIK - December, 2013

Change the Weather History Date:

Sunday, December 8, 2013

  Actual Average Record
Temperature  
Mean Temperature -10 °F 19 °F  
Max Temperature -5 °F 30 °F 60 °F (1939)
Min Temperature -16 °F 9 °F -35 °F (1917)
Degree Days  
Heating Degree Days 75 46  
Month to date heating degree days 493 355  
Since 1 July heating degree days 2434 2432  
Cooling Degree Days 0 0  
Month to date cooling degree days 0 0  
Year to date cooling degree days 386 419  
Moisture  
Dew Point -17 °F    
Average Humidity 72    
Maximum Humidity 79    
Minimum Humidity 64    
Precipitation  
Precipitation T in 0.00 in 0.12 in (1936)
Month to date precipitation 0.17 0.06  
Year to date precipitation 21.17 15.59  
Sea Level Pressure  
Sea Level Pressure 30.18 in    
Wind  
Wind Speed 12 mph (WSW)    
Max Wind Speed 25 mph    
Max Gust Speed 29 mph    
Visibility 9 miles    
Events Snow    
T = Trace of Precipitation, MM = Missing Value Source: NWS Daily Summary

Daily Weather History Graph

Daily Weather History Graph

Search for Another Location

Airport or City:

Trip Planner

Search our weather history database for the weather conditions in past years. The results will help you decide how hot, cold, wet, or windy it might be!

Date:

Astronomy

Dec. 08, 2013 Rise Set
Actual Time 7:23 AM MST 4:02 PM MST
Civil Twilight 6:48 AM MST 4:37 PM MST
Nautical Twilight 6:10 AM MST 5:16 PM MST
Astronomical Twilight 5:33 AM MST 5:53 PM MST
Moon 11:27 AM MST (12/8) 11:14 PM MST (12/8)
Length of Visible Light 9h 49m
Length of Day
8h 39m
Waxing Crescent, 40% of the Moon is Illuminated
Dec 8
Waxing Crescent
Dec 9
First Quarter
Dec 17
Full
Dec 25
Last Quarter
Jan 1
New

Hourly Weather History & Observations

Time (MST) Temp. Windchill Dew Point Humidity Pressure Visibility Wind Dir Wind Speed Gust Speed Precip Events Conditions
12:56 AM -11.9 °F -27.3 °F -18.0 °F 74% 30.30 in 10.0 mi South 6.9 mph - N/A   Overcast
1:20 AM -11.0 °F -22.8 °F -17.0 °F 75% 30.04 in 10.0 mi SSW 4.6 mph - N/A   Overcast
1:56 AM -9.9 °F -23.4 °F -17.0 °F 71% 30.27 in 10.0 mi SSW 5.8 mph - N/A   Overcast
2:08 AM -11.0 °F -26.2 °F -17.0 °F 75% 30.03 in 10.0 mi SSW 6.9 mph - N/A   Overcast
2:56 AM -15.0 °F -31.0 °F -20.9 °F 75% 30.26 in 10.0 mi SW 6.9 mph - N/A   Partly Cloudy
3:56 AM -15.0 °F - -22.0 °F 71% 30.24 in 10.0 mi Calm Calm - N/A   Overcast
4:56 AM -14.1 °F -26.3 °F -20.0 °F 75% 30.22 in 7.0 mi SSW 4.6 mph - 0.00 in Snow Light Snow
5:56 AM -13.0 °F -28.6 °F -18.9 °F 75% 30.21 in 8.0 mi SSW 6.9 mph - 0.00 in   Overcast
6:56 AM -11.9 °F -27.3 °F -18.0 °F 74% 30.20 in 5.0 mi SSW 6.9 mph - 0.00 in Snow Light Snow
7:56 AM -11.0 °F -30.9 °F -17.0 °F 75% 30.19 in 3.0 mi SW 11.5 mph - 0.00 in Snow Light Snow
8:56 AM -9.9 °F -28.6 °F -17.0 °F 71% 30.17 in 10.0 mi SW 10.4 mph - 0.00 in   Mostly Cloudy
9:56 AM -9.9 °F -29.6 °F -18.0 °F 68% 30.18 in 10.0 mi WSW 11.5 mph - N/A   Scattered Clouds
10:56 AM -8.0 °F -28.0 °F -16.1 °F 68% 30.14 in 10.0 mi WSW 12.7 mph - N/A   Clear
11:56 AM -6.0 °F -26.3 °F -15.0 °F 65% 30.11 in 10.0 mi West 13.8 mph - N/A   Clear
12:56 PM -6.0 °F -28.4 °F -15.0 °F 65% 30.09 in 10.0 mi West 17.3 mph 25.3 mph N/A   Clear
1:56 PM -5.1 °F -27.8 °F -15.0 °F 62% 30.08 in 10.0 mi West 18.4 mph - N/A   Mostly Cloudy
2:56 PM -5.1 °F -30.0 °F -14.1 °F 65% 30.10 in 10.0 mi WNW 23.0 mph - N/A   Clear
3:56 PM -6.0 °F -30.2 °F -14.1 °F 68% 30.14 in 10.0 mi WNW 20.7 mph - N/A   Clear
4:56 PM -9.0 °F -28.4 °F -15.0 °F 75% 30.17 in 10.0 mi WNW 11.5 mph - N/A   Clear
5:56 PM -9.0 °F -30.9 °F -15.0 °F 75% 30.18 in 10.0 mi West 15.0 mph - N/A   Clear
6:56 PM -9.9 °F -31.3 °F -16.1 °F 74% 30.20 in 10.0 mi West 13.8 mph - N/A   Clear
7:56 PM -8.0 °F -31.0 °F -14.1 °F 75% 30.20 in 10.0 mi WNW 17.3 mph - N/A   Clear
8:56 PM -9.0 °F -29.3 °F -15.0 °F 75% 30.22 in 10.0 mi WNW 12.7 mph - N/A   Clear
9:56 PM -11.0 °F -30.9 °F -17.0 °F 75% 30.25 in 10.0 mi West 11.5 mph - N/A   Clear
10:56 PM -13.0 °F -27.0 °F -18.0 °F 78% 30.25 in 10.0 mi West 5.8 mph - N/A   Clear
11:56 PM -11.0 °F -33.5 °F -16.1 °F 78% 30.24 in 10.0 mi West 15.0 mph - N/A   Clear